Retour au catalogue

STARLINK-6029

ActifCommunicationsVLEO
NORAD 56803·PAYLOAD·🇺🇸 United States

Lancé May 31, 2023 depuis Vandenberg Space Force Base

Loading…

Prochains Passages (prochaines 24 heures)

TLE

FraisSource: CelesTrak SupGP

Époque: Sep 15, 2026, 02:38 UTC

1 56803C 23078AN  26258.11020833 -.00032613  00000+0 -27327-2 0  2580
2 56803  70.0014 226.8295 0003573 270.9066 110.0683 14.98351841    12

Suivez STARLINK-6029 en temps réel avec AllMySat

Download on the App Store